Time,TemperatureF,DewpointF,PressureIn,WindDirection,WindDirectionDegrees,WindSpeedMPH,WindSpeedGustMPH,Humidity,HourlyPrecipIn,Conditions,Clouds,dailyrainin,SolarRadiationWatts/m^2,SoftwareType,DateUTC
2013-04-18 00:22:00,13.0,7.0,-100.00,WNW,303,2.0,7.0,75,0.00,,,0.21,1.000000,,2013-04-18 06:22:00,
2013-04-18 00:32:00,13.0,7.0,-100.00,WNW,303,2.0,7.0,75,0.00,,,0.21,1.000000,,2013-04-18 06:32:00,
2013-04-18 00:42:00,13.0,7.0,-100.00,WNW,303,2.0,7.0,75,0.00,,,0.21,1.000000,,2013-04-18 06:42:00,
2013-04-18 00:52:00,13.0,7.0,-100.00,WNW,303,2.0,7.0,75,0.00,,,0.21,1.000000,,2013-04-18 06:52:00,
2013-04-18 01:22:00,11.0,5.0,-100.00,WSW,253,1.0,4.0,77,0.00,,,0.21,1.000000,,2013-04-18 07:22:00,
2013-04-18 01:32:00,11.0,5.0,-100.00,WSW,253,1.0,4.0,77,0.00,,,0.21,1.000000,,2013-04-18 07:32:00,
2013-04-18 01:42:00,11.0,5.0,-100.00,WSW,253,1.0,4.0,77,0.00,,,0.21,1.000000,,2013-04-18 07:42:00,
2013-04-18 01:52:00,11.0,5.0,-100.00,WSW,253,1.0,4.0,77,0.00,,,0.21,1.000000,,2013-04-18 07:52:00,
2013-04-18 02:22:00,9.0,4.0,-100.00,SSE,156,2.0,5.0,78,0.00,,,0.21,1.000000,,2013-04-18 08:22:00,
2013-04-18 02:32:00,9.0,4.0,-100.00,SSE,156,2.0,5.0,78,0.00,,,0.21,1.000000,,2013-04-18 08:32:00,
2013-04-18 02:42:00,9.0,4.0,-100.00,SSE,156,2.0,5.0,78,0.00,,,0.21,1.000000,,2013-04-18 08:42:00,
2013-04-18 02:52:00,9.0,4.0,-100.00,SSE,156,2.0,5.0,78,0.00,,,0.21,1.000000,,2013-04-18 08:52:00,
2013-04-18 03:22:00,9.0,4.0,-100.00,NE,40,2.0,5.0,78,0.00,,,0.21,1.000000,,2013-04-18 09:22:00,
2013-04-18 03:32:00,9.0,4.0,-100.00,NE,40,2.0,5.0,78,0.00,,,0.21,1.000000,,2013-04-18 09:32:00,
2013-04-18 03:42:00,9.0,4.0,-100.00,NE,40,2.0,5.0,78,0.00,,,0.21,1.000000,,2013-04-18 09:42:00,
2013-04-18 03:52:00,9.0,4.0,-100.00,NE,40,2.0,5.0,78,0.00,,,0.21,1.000000,,2013-04-18 09:52:00,
2013-04-18 04:23:00,7.0,2.0,-100.00,NW,322,0.0,6.0,78,0.00,,,0.21,1.000000,,2013-04-18 10:23:00,
2013-04-18 04:32:00,7.0,2.0,-100.00,NW,322,0.0,6.0,78,0.00,,,0.21,1.000000,,2013-04-18 10:32:00,
2013-04-18 04:42:00,7.0,2.0,-100.00,NW,322,0.0,6.0,78,0.00,,,0.21,1.000000,,2013-04-18 10:42:00,
2013-04-18 04:52:00,7.0,2.0,-100.00,NW,322,0.0,6.0,78,0.00,,,0.21,1.000000,,2013-04-18 10:52:00,
2013-04-18 05:22:00,7.0,2.0,-100.00,NE,51,2.0,4.0,80,0.00,,,0.21,1.000000,,2013-04-18 11:22:00,
2013-04-18 05:32:00,7.0,2.0,-100.00,NE,51,2.0,4.0,80,0.00,,,0.21,1.000000,,2013-04-18 11:32:00,
2013-04-18 05:42:00,7.0,2.0,-100.00,NE,51,2.0,4.0,80,0.00,,,0.21,1.000000,,2013-04-18 11:42:00,
2013-04-18 05:52:00,7.0,2.0,-100.00,NE,51,2.0,4.0,80,0.00,,,0.21,1.000000,,2013-04-18 11:52:00,
2013-04-18 06:42:00,5.0,-1.0,-100.00,ENE,72,2.0,4.0,77,0.00,,,0.21,1.000000,,2013-04-18 12:42:00,
2013-04-18 06:52:00,5.0,-1.0,-100.00,ENE,72,2.0,4.0,77,0.00,,,0.21,1.000000,,2013-04-18 12:52:00,
2013-04-18 07:52:00,5.0,-1.0,-100.00,East,94,2.0,4.0,77,0.00,,,0.21,5.000000,,2013-04-18 13:52:00,
2013-04-18 08:22:00,11.0,5.0,-100.00,ESE,102,0.0,3.0,76,0.00,,,0.21,41.000000,,2013-04-18 14:22:00,
2013-04-18 08:32:00,11.0,5.0,-100.00,ESE,102,0.0,3.0,76,0.00,,,0.21,41.000000,,2013-04-18 14:32:00,
2013-04-18 08:42:00,11.0,5.0,-100.00,ESE,102,0.0,3.0,76,0.00,,,0.21,41.000000,,2013-04-18 14:42:00,
2013-04-18 08:52:00,11.0,5.0,-100.00,ESE,102,0.0,3.0,76,0.00,,,0.21,41.000000,,2013-04-18 14:52:00,
2013-04-18 09:22:00,22.0,11.0,-100.00,West,276,3.0,8.0,61,0.00,,,0.21,206.000000,,2013-04-18 15:22:00,
2013-04-18 09:33:00,22.0,11.0,-100.00,West,276,3.0,8.0,61,0.00,,,0.21,206.000000,,2013-04-18 15:33:00,
2013-04-18 09:42:00,22.0,11.0,-100.00,West,276,3.0,8.0,61,0.00,,,0.21,206.000000,,2013-04-18 15:42:00,
2013-04-18 09:52:00,22.0,11.0,-100.00,West,276,3.0,8.0,61,0.00,,,0.21,206.000000,,2013-04-18 15:52:00,
2013-04-18 10:22:00,20.0,9.0,-100.00,SW,225,4.0,7.0,61,0.01,,,0.22,293.000000,,2013-04-18 16:22:00,
2013-04-18 10:33:00,20.0,9.0,-100.00,SW,225,4.0,7.0,61,0.01,,,0.22,293.000000,,2013-04-18 16:33:00,
2013-04-18 10:42:00,20.0,9.0,-100.00,SW,225,4.0,7.0,61,0.01,,,0.22,293.000000,,2013-04-18 16:42:00,
2013-04-18 10:52:00,20.0,9.0,-100.00,SW,225,4.0,7.0,61,0.01,,,0.22,293.000000,,2013-04-18 16:52:00,
2013-04-18 11:22:00,24.0,10.0,-100.00,WNW,289,4.0,11.0,54,0.01,,,0.23,331.000000,,2013-04-18 17:22:00,
2013-04-18 11:33:00,24.0,10.0,-100.00,WNW,289,4.0,11.0,54,0.01,,,0.23,331.000000,,2013-04-18 17:33:00,
2013-04-18 11:42:00,24.0,10.0,-100.00,WNW,289,4.0,11.0,54,0.01,,,0.23,331.000000,,2013-04-18 17:42:00,
2013-04-18 11:52:00,24.0,10.0,-100.00,WNW,289,4.0,11.0,54,0.01,,,0.23,331.000000,,2013-04-18 17:52:00,
2013-04-18 12:22:00,26.0,9.0,-100.00,NNW,348,3.0,8.0,47,0.01,,,0.24,383.000000,,2013-04-18 18:22:00,
2013-04-18 12:32:00,26.0,9.0,-100.00,NNW,348,3.0,8.0,47,0.01,,,0.24,383.000000,,2013-04-18 18:32:00,
2013-04-18 12:42:00,26.0,9.0,-100.00,NNW,348,3.0,8.0,47,0.01,,,0.24,383.000000,,2013-04-18 18:42:00,
2013-04-18 12:52:00,26.0,9.0,-100.00,NNW,348,3.0,8.0,47,0.01,,,0.24,383.000000,,2013-04-18 18:52:00,
2013-04-18 13:22:00,26.0,5.0,-100.00,NNW,341,4.0,10.0,40,0.01,,,0.25,385.000000,,2013-04-18 19:22:00,
2013-04-18 13:32:00,26.0,5.0,-100.00,NNW,341,4.0,10.0,40,0.01,,,0.25,385.000000,,2013-04-18 19:32:00,
2013-04-18 14:22:00,31.0,7.0,-100.00,NNE,15,5.0,11.0,36,0.01,,,0.26,561.000000,,2013-04-18 20:22:00,
2013-04-18 14:32:00,31.0,7.0,-100.00,NNE,15,5.0,11.0,36,0.01,,,0.26,561.000000,,2013-04-18 20:32:00,
2013-04-18 14:42:00,31.0,7.0,-100.00,NNE,15,5.0,11.0,36,0.01,,,0.26,561.000000,,2013-04-18 20:42:00,
2013-04-18 14:52:00,31.0,7.0,-100.00,NNE,15,5.0,11.0,36,0.01,,,0.26,561.000000,,2013-04-18 20:52:00,
2013-04-18 15:22:00,33.0,4.0,-100.00,NNE,17,5.0,14.0,29,0.02,,,0.17,756.000000,,2013-04-18 21:22:00,
2013-04-18 16:22:00,32.0,6.0,-100.00,North,4,4.0,13.0,32,0.02,,,0.16,654.000000,,2013-04-18 22:22:00,
2013-04-18 16:32:00,32.0,6.0,-100.00,North,4,4.0,13.0,32,0.02,,,0.16,654.000000,,2013-04-18 22:32:00,
2013-04-18 16:42:00,32.0,6.0,-100.00,North,4,4.0,13.0,32,0.02,,,0.16,654.000000,,2013-04-18 22:42:00,
2013-04-18 17:52:00,32.0,3.0,-100.00,NNW,332,6.0,14.0,29,0.00,,,0.14,735.000000,,2013-04-18 23:52:00,
2013-04-18 18:21:00,32.0,6.0,-100.00,NNE,16,5.0,14.0,32,0.01,,,0.10,512.000000,,2013-04-19 00:21:00,
2013-04-18 18:32:00,32.0,6.0,-100.00,NNE,16,5.0,14.0,32,0.01,,,0.10,512.000000,,2013-04-19 00:32:00,
2013-04-18 18:42:00,32.0,6.0,-100.00,NNE,16,5.0,14.0,32,0.01,,,0.10,512.000000,,2013-04-19 00:42:00,
2013-04-18 18:51:00,32.0,6.0,-100.00,NNE,16,5.0,14.0,32,0.01,,,0.10,512.000000,,2013-04-19 00:51:00,
2013-04-18 19:21:00,27.0,3.0,-100.00,NNE,21,5.0,11.0,35,0.00,,,0.10,313.000000,,2013-04-19 01:21:00,
2013-04-18 19:31:00,27.0,3.0,-100.00,NNE,21,5.0,11.0,35,0.00,,,0.10,313.000000,,2013-04-19 01:31:00,
2013-04-18 19:42:00,27.0,3.0,-100.00,NNE,21,5.0,11.0,35,0.00,,,0.10,313.000000,,2013-04-19 01:42:00,
2013-04-18 19:52:00,27.0,3.0,-100.00,NNE,21,5.0,11.0,35,0.00,,,0.10,313.000000,,2013-04-19 01:52:00,
2013-04-18 20:21:00,23.0,3.0,-100.00,NE,49,3.0,8.0,41,0.00,,,0.10,33.000000,,2013-04-19 02:21:00,
2013-04-18 20:32:00,23.0,3.0,-100.00,NE,49,3.0,8.0,41,0.00,,,0.10,33.000000,,2013-04-19 02:32:00,
2013-04-18 20:42:00,23.0,3.0,-100.00,NE,49,3.0,8.0,41,0.00,,,0.10,33.000000,,2013-04-19 02:42:00,
2013-04-18 20:51:00,23.0,3.0,-100.00,NE,49,3.0,8.0,41,0.00,,,0.10,33.000000,,2013-04-19 02:51:00,
2013-04-18 21:21:00,19.0,5.0,-100.00,ESE,117,2.0,8.0,54,0.00,,,0.10,1.000000,,2013-04-19 03:21:00,
2013-04-18 21:32:00,19.0,5.0,-100.00,ESE,117,2.0,8.0,54,0.00,,,0.10,1.000000,,2013-04-19 03:32:00,
2013-04-18 21:43:00,19.0,5.0,-100.00,ESE,117,2.0,8.0,54,0.00,,,0.10,1.000000,,2013-04-19 03:43:00,
2013-04-18 21:53:00,19.0,5.0,-100.00,ESE,117,2.0,8.0,54,0.00,,,0.10,1.000000,,2013-04-19 03:53:00,
2013-04-18 22:23:00,19.0,3.0,-100.00,ENE,78,5.0,9.0,50,0.00,,,0.10,1.000000,,2013-04-19 04:23:00,
2013-04-18 22:33:00,19.0,3.0,-100.00,ENE,78,5.0,9.0,50,0.00,,,0.10,1.000000,,2013-04-19 04:33:00,
2013-04-18 22:43:00,19.0,3.0,-100.00,ENE,78,5.0,9.0,50,0.00,,,0.10,1.000000,,2013-04-19 04:43:00,
2013-04-18 22:52:00,19.0,3.0,-100.00,ENE,78,5.0,9.0,50,0.00,,,0.10,1.000000,,2013-04-19 04:52:00,
2013-04-18 23:22:00,17.0,3.0,-100.00,ESE,114,2.0,11.0,53,0.00,,,0.10,1.000000,,2013-04-19 05:22:00,
2013-04-18 23:32:00,17.0,3.0,-100.00,ESE,114,2.0,11.0,53,0.00,,,0.10,1.000000,,2013-04-19 05:32:00,
2013-04-18 23:42:00,17.0,3.0,-100.00,ESE,114,2.0,11.0,53,0.00,,,0.10,1.000000,,2013-04-19 05:42:00,
2013-04-18 23:51:00,17.0,3.0,-100.00,ESE,114,2.0,11.0,53,0.00,,,0.10,1.000000,,2013-04-19 05:51:00,